Wappingers Falls, NY

3:57 PM EDT on August 28, 2016 (GMT -0400)
Dutchess County

Weather History for KPOU - October, 2011

Change the Weather History Date:

Saturday, October 15, 2011

  Actual Average Record
Temperature  
Mean Temperature 57 °F 51 °F  
Max Temperature 61 °F 63 °F 85 °F (1956)
Min Temperature 53 °F 39 °F 28 °F (1987)
Degree Days  
Heating Degree Days 8 14  
Month to date heating degree days 102 172  
Since 1 July heating degree days 162 312  
Cooling Degree Days 0 0  
Month to date cooling degree days 0 0  
Year to date cooling degree days 908 668  
Growing Degree Days 7 (Base 50)    
Moisture  
Dew Point 41 °F    
Average Humidity 55    
Maximum Humidity 72    
Minimum Humidity 40    
Precipitation  
Precipitation T in 0.16 in 4.48 in (1955)
Month to date precipitation 1.73 2.25  
Year to date precipitation 49.49 37.31  
Sea Level Pressure  
Sea Level Pressure 29.59 in    
Wind  
Wind Speed 10 mph (SW)    
Max Wind Speed 20 mph    
Max Gust Speed 30 mph    
Visibility 10 miles    
Events      
T = Trace of Precipitation, MM = Missing Value Source: NWS Daily Summary

Daily Weather History Graph

Daily Weather History Graph

Search for Another Location

Airport or City:

Trip Planner

Search our weather history database for the weather conditions in past years. The results will help you decide how hot, cold, wet, or windy it might be!

Date:

Astronomy

Oct. 15, 2011 Rise Set
Actual Time 7:07 AM EDT 6:14 PM EDT
Civil Twilight 6:39 AM EDT 6:42 PM EDT
Nautical Twilight 6:07 AM EDT 7:14 PM EDT
Astronomical Twilight 5:34 AM EDT 7:46 PM EDT
Moon 8:06 PM EDT (10/15) 10:32 AM EDT (10/15)
Length of Visible Light 12h 03m
Length of Day
11h 07m
Waning Gibbous, 89% of the Moon is Illuminated
Oct 15
Waning Gibbous
Oct 19
Last Quarter
Oct 26
New
Nov 2
First Quarter
Nov 10
Full

Hourly Weather History & Observations

Time (EDT) Temp. Dew Point Humidity Pressure Visibility Wind Dir Wind Speed Gust Speed Precip Events Conditions
12:53 AM 57.2 °F 46.4 °F 67% 29.48 in 10.0 mi SW 10.4 mph - N/A   Mostly Cloudy
1:53 AM 55.9 °F 46.0 °F 69% 29.49 in 10.0 mi SSW 4.6 mph - N/A   Clear
2:53 AM 55.0 °F 46.0 °F 72% 29.52 in 10.0 mi SSW 4.6 mph - N/A   Clear
3:53 AM 54.0 °F 45.0 °F 72% 29.52 in 10.0 mi Variable 5.8 mph - N/A   Clear
4:53 AM 54.0 °F 44.1 °F 69% 29.54 in 10.0 mi SSW 6.9 mph - N/A   Clear
5:53 AM 54.0 °F 43.0 °F 66% 29.56 in 10.0 mi SSW 9.2 mph - N/A   Clear
6:53 AM 53.1 °F 43.0 °F 69% 29.56 in 10.0 mi SSW 4.6 mph 16.1 mph N/A   Clear
7:53 AM 54.0 °F 43.0 °F 66% 29.57 in 10.0 mi SW 10.4 mph - N/A   Clear
8:53 AM 55.0 °F 43.0 °F 64% 29.58 in 10.0 mi SSW 10.4 mph 19.6 mph N/A   Clear
9:53 AM 57.9 °F 44.1 °F 60% 29.58 in 10.0 mi SSW 11.5 mph 21.9 mph N/A   Clear
10:53 AM 59.0 °F 44.1 °F 58% 29.58 in 10.0 mi SW 10.4 mph 21.9 mph N/A   Mostly Cloudy
11:53 AM 57.9 °F 45.0 °F 62% 29.58 in 10.0 mi SW 12.7 mph 17.3 mph 0.00 in   Mostly Cloudy
12:53 PM 60.8 °F 41.0 °F 48% 29.57 in 10.0 mi SW 15.0 mph 24.2 mph N/A   Overcast
1:53 PM 60.1 °F 39.9 °F 47% 29.55 in 10.0 mi SW 15.0 mph 26.5 mph N/A   Overcast
2:53 PM 61.0 °F 39.0 °F 44% 29.55 in 10.0 mi SW 16.1 mph 25.3 mph N/A   Overcast
3:53 PM 60.1 °F 39.9 °F 47% 29.57 in 10.0 mi SW 10.4 mph 18.4 mph N/A   Overcast
4:53 PM 61.0 °F 39.0 °F 44% 29.59 in 10.0 mi SW 9.2 mph 20.7 mph N/A   Mostly Cloudy
5:53 PM 60.8 °F 37.4 °F 42% 29.61 in 10.0 mi SW 10.4 mph - N/A   Mostly Cloudy
6:53 PM 59.0 °F 37.0 °F 44% 29.63 in 10.0 mi SW 11.5 mph 18.4 mph N/A   Scattered Clouds
7:53 PM 59.0 °F 37.9 °F 46% 29.66 in 10.0 mi SW 8.1 mph - N/A   Overcast
8:53 PM 59.0 °F 37.0 °F 44% 29.68 in 10.0 mi SW 8.1 mph 16.1 mph N/A   Partly Cloudy
9:53 PM 57.2 °F 35.6 °F 44% 29.70 in 10.0 mi SW 6.9 mph - N/A   Clear
10:53 PM 59.0 °F 35.1 °F 41% 29.70 in 10.0 mi SW 10.4 mph 18.4 mph N/A   Overcast
11:53 PM 59.0 °F 36.0 °F 42% 29.71 in 10.0 mi SW 10.4 mph - N/A   Overcast